When you browse on this site, cookies collect data to enhance your experience and personalize the content and advertising you see.
Visit our Privacy Policy to learn more. By continuing to use the site, you agree to this use of cookies and data.
  • In Switzerland
  • List of Countries
  • For 7 days
  • Water Temperature
  • Satellite Maps
  • Weather Map
  • Weather Widgets
  • user-avatar
    Login

    Hourly Weather Innsbruck

    Today, 23 March, Saturday

    Time Temperature Precipitation Wind Pressure Humidity
    00:00 -1°C° 0 mm 1 mps 600 mmHg 67%
    01:00 0°C° 0 mm 1 mps 600 mmHg 61%
    02:00 -1°C° 0 mm 1 mps 600 mmHg 62%
    03:00 -1°C° 0 mm 1 mps 600 mmHg 64%
    04:00 -1°C° 0 mm 1 mps 599 mmHg 65%
    05:00 -1°C° 0 mm 1 mps 599 mmHg 65%
    06:00 -1°C° 0 mm 1 mps 600 mmHg 66%
    07:00 -1°C° 0 mm 1 mps 600 mmHg 66%
    08:00 +1°C° 0 mm 1 mps 600 mmHg 66%
    09:00 +4°C° 0 mm 1 mps 601 mmHg 67%
    10:00 +6°C° 0 mm 0 mps 602 mmHg 67%
    11:00 +6°C° 0 mm 0 mps 602 mmHg 64%
    12:00 +8°C° 0 mm 1 mps 602 mmHg 61%
    13:00 +9°C° 0 mm 1 mps 602 mmHg 58%
    14:00 +8°C° 0 mm 1 mps 602 mmHg 60%
    15:00 +8°C° 0 mm 1 mps 602 mmHg 63%
    16:00 +8°C° 0 mm 1 mps 602 mmHg 65%
    17:00 +5°C° 0 mm 1 mps 601 mmHg 71%
    18:00 +3°C° 0 mm 1 mps 599 mmHg 77%
    19:00 0°C° 0 mm 0 mps 598 mmHg 84%
    20:00 -1°C° 0 mm 0 mps 599 mmHg 84%
    21:00 0°C° 0 mm 1 mps 599 mmHg 84%
    22:00 0°C° 0 mm 1 mps 599 mmHg 84%
    23:00 0°C° 0 mm 1 mps 599 mmHg 82%

    Tomorrow, 24 March, Sunday

    Time Temperature Precipitation Wind Pressure Humidity
    00:00 0°C° 0 mm 1 mps 599 mmHg 79%
    01:00 -3°C° 0 mm 2 mps 599 mmHg 77%
    02:00 -3°C° 0 mm 2 mps 599 mmHg 74%
    03:00 -3°C° 0 mm 2 mps 598 mmHg 71%
    04:00 -3°C° 0 mm 2 mps 598 mmHg 68%
    05:00 -3°C° 0 mm 2 mps 598 mmHg 66%
    06:00 -3°C° 0 mm 2 mps 598 mmHg 64%
    07:00 -3°C° 0 mm 2 mps 598 mmHg 61%
    08:00 +1°C° 0 mm 2 mps 599 mmHg 59%
    09:00 +5°C° 0 mm 1 mps 600 mmHg 58%
    10:00 +7°C° 0 mm 1 mps 601 mmHg 56%
    11:00 +8°C° 0 mm 1 mps 601 mmHg 55%
    12:00 +9°C° 0 mm 1 mps 601 mmHg 54%
    13:00 +9°C° 0 mm 1 mps 601 mmHg 54%
    14:00 +9°C° 0 mm 1 mps 600 mmHg 56%
    15:00 +8°C° 0 mm 1 mps 599 mmHg 59%
    16:00 +8°C° 0 mm 1 mps 599 mmHg 62%
    17:00 +6°C° 0 mm 1 mps 598 mmHg 71%
    18:00 +3°C° 0 mm 1 mps 597 mmHg 79%
    19:00 +1°C° 0 mm 1 mps 596 mmHg 88%
    20:00 +1°C° 0 mm 1 mps 596 mmHg 90%
    21:00 +1°C° 0 mm 1 mps 597 mmHg 91%
    22:00 0°C° 0 mm 1 mps 597 mmHg 93%
    23:00 0°C° 0 mm 1 mps 597 mmHg 92%

    Day after tomorrow, 25 March, Monday

    Time Temperature Precipitation Wind Pressure Humidity
    00:00 0°C° 0 mm 1 mps 596 mmHg 92%
    01:00 -1°C° 0 mm 1 mps 596 mmHg 92%
    02:00 -1°C° 0 mm 1 mps 596 mmHg 91%
    03:00 -1°C° 0 mm 1 mps 595 mmHg 91%
    04:00 -2°C° 0 mm 1 mps 595 mmHg 91%
    05:00 -1°C° 0 mm 1 mps 595 mmHg 91%
    06:00 -1°C° 0 mm 1 mps 595 mmHg 91%
    07:00 -1°C° 0 mm 1 mps 595 mmHg 91%
    08:00 -2°C° 0.1 mm 2 mps 595 mmHg 87%
    09:00 -1°C° 0.1 mm 2 mps 596 mmHg 83%
    10:00 +1°C° 0.1 mm 2 mps 596 mmHg 79%
    11:00 +1°C° 0.1 mm 2 mps 596 mmHg 78%
    12:00 0°C° 0.1 mm 3 mps 595 mmHg 77%
    13:00 0°C° 0.1 mm 3 mps 595 mmHg 76%
    14:00 0°C° 0.2 mm 3 mps 595 mmHg 78%
    15:00 -1°C° 0.2 mm 3 mps 594 mmHg 80%
    16:00 -3°C° 0.2 mm 4 mps 594 mmHg 82%
    17:00 -4°C° 0.5 mm 4 mps 594 mmHg 86%
    18:00 -7°C° 0.5 mm 4 mps 594 mmHg 89%
    19:00 -8°C° 0.5 mm 4 mps 594 mmHg 93%
    20:00 -9°C° 0.6 mm 4 mps 594 mmHg 92%
    21:00 -10°C° 0.6 mm 4 mps 594 mmHg 92%
    22:00 -10°C° 0.6 mm 3 mps 595 mmHg 91%
    23:00 -10°C° 0.1 mm 3 mps 595 mmHg 90%

    26 March, Tuesday

    Time Temperature Precipitation Wind Pressure Humidity
    00:00 -12°C° 0.1 mm 3 mps 595 mmHg 90%
    01:00 -10°C° 0.1 mm 2 mps 595 mmHg 89%
    02:00 -10°C° 0.1 mm 2 mps 595 mmHg 89%
    03:00 -12°C° 0.1 mm 2 mps 596 mmHg 89%
    04:00 -12°C° 0.1 mm 2 mps 596 mmHg 88%
    05:00 -12°C° 0.1 mm 2 mps 596 mmHg 87%
    06:00 -12°C° 0.1 mm 2 mps 597 mmHg 86%
    07:00 -10°C° 0.1 mm 2 mps 597 mmHg 84%
    08:00 -9°C° 0 mm 2 mps 598 mmHg 79%
    09:00 -8°C° 0 mm 2 mps 599 mmHg 73%
    10:00 -8°C° 0 mm 3 mps 599 mmHg 68%
    11:00 -7°C° 0 mm 3 mps 599 mmHg 65%
    12:00 -6°C° 0 mm 3 mps 599 mmHg 63%
    13:00 -6°C° 0 mm 3 mps 599 mmHg 61%
    14:00 -6°C° 0 mm 3 mps 599 mmHg 61%
    15:00 -6°C° 0 mm 3 mps 599 mmHg 62%
    16:00 -5°C° 0 mm 2 mps 599 mmHg 63%
    17:00 -6°C° 0 mm 2 mps 598 mmHg 72%
    18:00 -8°C° 0 mm 2 mps 598 mmHg 81%
    19:00 -9°C° 0 mm 1 mps 597 mmHg 90%
    20:00 -9°C° 0 mm 1 mps 598 mmHg 89%
    21:00 -9°C° 0 mm 1 mps 598 mmHg 89%
    22:00 -10°C° 0 mm 1 mps 598 mmHg 89%
    23:00 -10°C° 0 mm 1 mps 598 mmHg 85%

    27 March, Wednesday

    Time Temperature Precipitation Wind Pressure Humidity
    00:00 -10°C° 0 mm 1 mps 598 mmHg 82%
    01:00 -10°C° 0 mm 1 mps 598 mmHg 78%
    02:00 -10°C° 0 mm 1 mps 598 mmHg 74%
    03:00 -10°C° 0 mm 1 mps 598 mmHg 69%
    04:00 -10°C° 0 mm 1 mps 597 mmHg 65%
    05:00 -9°C° 0 mm 1 mps 598 mmHg 62%
    06:00 -9°C° 0 mm 1 mps 598 mmHg 59%
    07:00 -9°C° 0 mm 1 mps 598 mmHg 56%
    08:00 -7°C° 0 mm 2 mps 599 mmHg 52%
    09:00 -5°C° 0 mm 2 mps 600 mmHg 48%
    10:00 -3°C° 0 mm 2 mps 600 mmHg 43%
    11:00 -2°C° 0 mm 2 mps 600 mmHg 46%
    12:00 -2°C° 0 mm 2 mps 601 mmHg 49%
    13:00 -1°C° 0 mm 2 mps 601 mmHg 52%
    14:00 -1°C° 0 mm 3 mps 600 mmHg 56%
    15:00 -2°C° 0 mm 3 mps 600 mmHg 59%
    16:00 -2°C° 0 mm 3 mps 600 mmHg 63%
    17:00 -3°C° 0 mm 2 mps 599 mmHg 72%
    18:00 -5°C° 0 mm 2 mps 599 mmHg 82%
    19:00 -6°C° 0 mm 2 mps 599 mmHg 92%
    20:00 -4°C° 0.1 mm 1 mps 599 mmHg 93%
    21:00 -4°C° 0.1 mm 1 mps 599 mmHg 93%
    22:00 -4°C° 0.1 mm 1 mps 600 mmHg 94%
    23:00 -6°C° 0 mm 1 mps 599 mmHg 94%

    28 March, Thursday

    Time Temperature Precipitation Wind Pressure Humidity
    00:00 -6°C° 0 mm 1 mps 599 mmHg 93%
    01:00 -6°C° 0 mm 1 mps 599 mmHg 93%
    02:00 -6°C° 0 mm 1 mps 599 mmHg 91%
    03:00 -6°C° 0 mm 1 mps 599 mmHg 90%
    04:00 -6°C° 0 mm 1 mps 599 mmHg 88%
    05:00 -6°C° 0.1 mm 1 mps 599 mmHg 87%
    06:00 -6°C° 0.1 mm 1 mps 599 mmHg 86%
    07:00 -4°C° 0.1 mm 1 mps 600 mmHg 84%
    08:00 -3°C° 0 mm 1 mps 600 mmHg 79%
    09:00 -1°C° 0 mm 1 mps 601 mmHg 75%
    10:00 -2°C° 0 mm 2 mps 601 mmHg 70%
    11:00 -1°C° 0 mm 2 mps 601 mmHg 67%
    12:00 +1°C° 0 mm 2 mps 602 mmHg 65%
    13:00 +1°C° 0 mm 2 mps 602 mmHg 63%
    14:00 +1°C° 0 mm 2 mps 601 mmHg 64%
    15:00 +1°C° 0 mm 2 mps 601 mmHg 66%
    16:00 +1°C° 0 mm 2 mps 601 mmHg 68%
    17:00 -2°C° 0 mm 2 mps 600 mmHg 77%
    18:00 -1°C° 0 mm 1 mps 600 mmHg 85%
    19:00 -3°C° 0 mm 1 mps 599 mmHg 94%
    20:00 -4°C° 0 mm 1 mps 599 mmHg 94%
    21:00 -4°C° 0 mm 1 mps 600 mmHg 93%
    22:00 -4°C° 0 mm 1 mps 600 mmHg 92%
    23:00 -4°C° 0 mm 1 mps 600 mmHg 89%
    Show more